| time (UTC) | temp F | wind direction | speed MPH | gust MPH | rain 1hr in | rain 24hr in | rain mn in | humidity % | barometer mb |
| 20260507203007 | 56 | 284 | 0.0 | 0.0 | 0.00 | 0.02 | 0.02 | 78 | 1013.0 |
| 20260507201507 | 56 | 284 | 0.0 | 0.0 | 0.00 | 0.02 | 0.02 | 78 | 1013.0 |
| 20260507200006 | 57 | 284 | 0.0 | 0.0 | 0.00 | 0.02 | 0.02 | 75 | 1012.8 |
| 20260507194510 | 57 | 281 | 0.0 | 0.0 | 0.00 | 0.02 | 0.02 | 74 | 1012.7 |
| 20260507193005 | 57 | 208 | 0.0 | 0.0 | 0.00 | 0.02 | 0.02 | 74 | 1012.6 |
| 20260507191504 | 57 | 207 | 0.0 | 0.0 | 0.00 | 0.02 | 0.02 | 74 | 1012.6 |
| 20260507190005 | 57 | 207 | 0.0 | 0.0 | 0.00 | 0.02 | 0.02 | 74 | 1012.4 |
| 20260507184503 | 57 | 206 | 0.0 | 3.0 | 0.00 | 0.02 | 0.02 | 73 | 1012.3 |
| 20260507183009 | 57 | 164 | 0.0 | 0.0 | 0.00 | 0.02 | 0.02 | 71 | 1012.4 |
| 20260507181502 | 57 | 163 | 0.0 | 0.0 | 0.00 | 0.02 | 0.02 | 71 | 1012.3 |
| 20260507180002 | 58 | 163 | 0.0 | 0.0 | 0.00 | 0.02 | 0.02 | 70 | 1012.2 |
| 20260507174501 | 58 | 140 | 1.0 | 6.0 | 0.00 | 0.02 | 0.02 | 69 | 1012.2 |
| 20260507173001 | 59 | 178 | 1.0 | 5.0 | 0.00 | 0.02 | 0.02 | 67 | 1012.3 |
| 20260507171615 | 59 | 133 | 1.0 | 11.0 | 0.00 | 0.02 | 0.02 | 68 | 1012.3 |
| 20260507170101 | 60 | 197 | 5.0 | 9.0 | 0.00 | 0.02 | 0.02 | 65 | 1012.2 |
| 20260507164612 | 60 | 165 | 2.0 | 6.0 | 0.00 | 0.02 | 0.02 | 65 | 1012.1 |
| 20260507163059 | 60 | 171 | 2.0 | 7.0 | 0.00 | 0.02 | 0.02 | 65 | 1012.1 |
| 20260507161605 | 61 | 191 | 2.0 | 8.0 | 0.00 | 0.02 | 0.02 | 64 | 1012.1 |
| 20260507160100 | 61 | 143 | 3.0 | 9.0 | 0.00 | 0.02 | 0.02 | 62 | 1012.1 |
| 20260507154557 | 61 | 198 | 4.0 | 10.0 | 0.00 | 0.02 | 0.02 | 62 | 1012.2 |
| 20260507153057 | 62 | 194 | 4.0 | 11.0 | 0.00 | 0.02 | 0.02 | 60 | 1012.2 |
| 20260507151556 | 64 | 194 | 5.0 | 12.0 | 0.00 | 0.02 | 0.02 | 58 | 1012.1 |
| 20260507144553 | 65 | 140 | 4.0 | 13.0 | 0.00 | 0.02 | 0.02 | 58 | 1012.3 |
| 20260507143100 | 64 | 139 | 3.0 | 10.0 | 0.00 | 0.02 | 0.02 | 59 | 1012.5 |
| 20260507141552 | 63 | 119 | 3.0 | 12.0 | 0.00 | 0.02 | 0.02 | 61 | 1012.8 |
| 20260507140046 | 62 | 173 | 2.0 | 9.0 | 0.00 | 0.02 | 0.02 | 61 | 1012.9 |
| 20260507134553 | 60 | 189 | 2.0 | 7.0 | 0.00 | 0.02 | 0.02 | 68 | 1013.1 |
| 20260507133044 | 60 | 140 | 3.0 | 8.0 | 0.00 | 0.02 | 0.02 | 67 | 1013.1 |
| 20260507131543 | 61 | 192 | 2.0 | 8.0 | 0.00 | 0.02 | 0.02 | 65 | 1013.1 |
| 20260507130043 | 61 | 132 | 4.0 | 12.0 | 0.00 | 0.02 | 0.02 | 64 | 1013.2 |
| 20260507124541 | 61 | 157 | 4.0 | 10.0 | 0.00 | 0.02 | 0.02 | 65 | 1013.4 |
| 20260507123041 | 61 | 105 | 4.0 | 9.0 | 0.00 | 0.02 | 0.02 | 66 | 1013.3 |
| 20260507121541 | 61 | 94 | 3.0 | 10.0 | 0.00 | 0.02 | 0.02 | 66 | 1013.5 |
| 20260507120039 | 61 | 106 | 5.0 | 10.0 | 0.00 | 0.02 | 0.02 | 68 | 1013.6 |
| 20260507114538 | 60 | 119 | 4.0 | 8.0 | 0.00 | 0.02 | 0.02 | 71 | 1013.9 |
| 20260507113033 | 60 | 166 | 4.0 | 7.0 | 0.00 | 0.02 | 0.02 | 74 | 1013.9 |
| 20260507111530 | 58 | 150 | 2.0 | 7.0 | 0.00 | 0.02 | 0.02 | 74 | 1014.1 |
| 20260507110025 | 57 | 103 | 5.0 | 10.0 | 0.00 | 0.02 | 0.02 | 76 | 1014.3 |
| 20260507104524 | 54 | 129 | 4.0 | 7.0 | 0.00 | 0.02 | 0.02 | 79 | 1014.4 |
| 20260507103023 | 53 | 168 | 4.0 | 7.0 | 0.00 | 0.02 | 0.02 | 82 | 1014.5 |
| 20260507101520 | 52 | 138 | 4.0 | 7.0 | 0.00 | 0.02 | 0.02 | 84 | 1014.4 |
| 20260507100012 | 51 | 141 | 0.0 | 4.0 | 0.00 | 0.02 | 0.02 | 86 | 1014.4 |
| 20260507094509 | 50 | 146 | 2.0 | 5.0 | 0.02 | 0.02 | 0.02 | 85 | 1014.5 |
| 20260507093009 | 49 | 142 | 1.0 | 4.0 | 0.02 | 0.02 | 0.02 | 86 | 1014.4 |
| 20260507091508 | 49 | 128 | 2.0 | 5.0 | 0.02 | 0.02 | 0.02 | 87 | 1014.4 |
| 20260507090007 | 50 | 173 | 2.0 | 8.0 | 0.02 | 0.02 | 0.02 | 84 | 1014.4 |
| 20260507084506 | 50 | 153 | 3.0 | 8.0 | 0.00 | 0.00 | 0.00 | 80 | 1014.3 |
| 20260507083007 | 50 | 139 | 3.0 | 8.0 | 0.00 | 0.00 | 0.00 | 79 | 1014.3 |
| 20260507081511 | 50 | 190 | 3.0 | 7.0 | 0.00 | 0.00 | 0.00 | 79 | 1014.3 |
| 20260507080005 | 51 | 136 | 4.0 | 9.0 | 0.00 | 0.00 | 0.00 | 77 | 1014.3 |
| 20260507074515 | 51 | 126 | 4.0 | 7.0 | 0.00 | 0.00 | 0.00 | 78 | 1014.3 |
| 20260507073002 | 50 | 153 | 4.0 | 9.0 | 0.00 | 0.00 | 0.00 | 79 | 1014.2 |
| 20260507071601 | 50 | 145 | 2.0 | 9.0 | 0.00 | 0.00 | 0.00 | 80 | 1014.2 |
| 20260507070107 | 50 | 155 | 4.0 | 8.0 | 0.00 | 0.00 | 0.00 | 80 | 1014.1 |
| 20260507064556 | 49 | 179 | 1.0 | 7.0 | 0.00 | 0.00 | 0.00 | 81 | 1014.1 |
| 20260507063053 | 49 | 149 | 2.0 | 7.0 | 0.00 | 0.00 | 0.00 | 81 | 1014.0 |
| 20260507061547 | 49 | 170 | 0.0 | 3.0 | 0.00 | 0.00 | 0.00 | 82 | 1013.9 |
| 20260507060059 | 48 | 177 | 0.0 | 2.0 | 0.00 | 0.00 | 0.00 | 83 | 1013.7 |
| 20260507054547 | 48 | 177 | 0.0 | 0.0 | 0.00 | 0.00 | 0.00 | 83 | 1013.6 |
| 20260507053048 | 48 | 177 | 0.0 | 0.0 | 0.00 | 0.00 | 0.00 | 83 | 1013.6 |
| 20260507051541 | 48 | 177 | 0.0 | 0.0 | 0.00 | 0.00 | 0.00 | 83 | 1013.5 |
| 20260507050041 | 48 | 177 | 0.0 | 2.0 | 0.00 | 0.00 | 0.00 | 83 | 1013.4 |
| 20260507044534 | 48 | 177 | 0.0 | 3.0 | 0.00 | 0.00 | 0.00 | 83 | 1013.4 |
| 20260507043034 | 48 | 177 | 0.0 | 0.0 | 0.00 | 0.00 | 0.00 | 83 | 1013.3 |
| 20260507041533 | 48 | 177 | 0.0 | 0.0 | 0.00 | 0.00 | 0.00 | 83 | 1013.4 |
| 20260507040034 | 48 | 177 | 0.0 | 0.0 | 0.00 | 0.00 | 0.00 | 83 | 1013.2 |
| 20260507034549 | 49 | 176 | 0.0 | 3.0 | 0.00 | 0.00 | 0.00 | 83 | 1013.2 |
| 20260507033033 | 49 | 176 | 1.0 | 5.0 | 0.00 | 0.00 | 0.00 | 82 | 1013.2 |
| 20260507031528 | 49 | 144 | 1.0 | 4.0 | 0.00 | 0.00 | 0.00 | 82 | 1013.2 |
| 20260507030028 | 49 | 142 | 0.0 | 4.0 | 0.00 | 0.00 | 0.00 | 82 | 1013.2 |
| 20260507024544 | 50 | 140 | 1.0 | 5.0 | 0.00 | 0.00 | 0.00 | 82 | 1013.1 |
| 20260507023024 | 50 | 137 | 0.0 | 4.0 | 0.00 | 0.00 | 0.00 | 83 | 1013.1 |
| 20260507021524 | 50 | 148 | 1.0 | 6.0 | 0.00 | 0.00 | 0.00 | 84 | 1013.1 |
| 20260507020020 | 50 | 153 | 0.0 | 3.0 | 0.00 | 0.00 | 0.00 | 86 | 1013.1 |
| 20260507014533 | 51 | 163 | 0.0 | 4.0 | 0.00 | 0.00 | 0.00 | 87 | 1013.1 |
| 20260507013018 | 51 | 152 | 0.0 | 3.0 | 0.00 | 0.00 | 0.00 | 87 | 1013.1 |
| 20260507011531 | 51 | 151 | 0.0 | 3.0 | 0.00 | 0.00 | 0.00 | 88 | 1013.1 |
| 20260507010018 | 51 | 153 | 0.0 | 4.0 | 0.00 | 0.00 | 0.00 | 87 | 1013.1 |
| 20260507004514 | 52 | 123 | 0.0 | 0.0 | 0.00 | 0.00 | 0.00 | 88 | 1013.1 |
| 20260507003017 | 52 | 121 | 0.0 | 0.0 | 0.00 | 0.00 | 0.00 | 89 | 1013.1 |
| 20260507001512 | 52 | 121 | 0.0 | 0.0 | 0.00 | 0.00 | 0.00 | 88 | 1013.3 |
| 20260507000012 | 52 | 121 | 0.0 | 0.0 | 0.00 | 0.00 | 0.00 | 89 | 1013.4 |
| 20260506234510 | 52 | 121 | 0.0 | 0.0 | 0.00 | 0.00 | 0.00 | 88 | 1013.4 |
| 20260506233009 | 52 | 121 | 0.0 | 0.0 | 0.00 | 0.00 | 0.00 | 87 | 1013.3 |
| 20260506231507 | 52 | 121 | 0.0 | 0.0 | 0.00 | 0.00 | 0.00 | 83 | 1013.4 |
| 20260506230010 | 52 | 121 | 0.0 | 0.0 | 0.00 | 0.00 | 0.00 | 79 | 1013.4 |
| 20260506224505 | 53 | 121 | 0.0 | 0.0 | 0.00 | 0.00 | 0.00 | 77 | 1013.4 |
| 20260506223002 | 53 | 121 | 0.0 | 0.0 | 0.00 | 0.00 | 0.00 | 78 | 1013.3 |
| 20260506221612 | 53 | 121 | 0.0 | 0.0 | 0.00 | 0.00 | 0.00 | 76 | 1013.2 |
| 20260506220059 | 53 | 90 | 0.0 | 3.0 | 0.00 | 0.00 | 0.00 | 76 | 1013.2 |
| 20260506214606 | 53 | 67 | 0.0 | 2.0 | 0.00 | 0.00 | 0.00 | 78 | 1013.1 |
| 20260506213058 | 54 | 52 | 0.0 | 0.0 | 0.00 | 0.00 | 0.00 | 76 | 1013.2 |
| 20260506211559 | 54 | 52 | 0.0 | 2.0 | 0.00 | 0.00 | 0.00 | 76 | 1013.0 |
| 20260506210056 | 54 | 51 | 0.0 | 0.0 | 0.00 | 0.00 | 0.00 | 75 | 1013.1 |
| 20260506204608 | 54 | 51 | 0.0 | 0.0 | 0.00 | 0.00 | 0.00 | 74 | 1013.1 |